TimeCST,TemperatureF,Dew PointF,Humidity,Sea Level PressureIn,VisibilityMPH,Wind Direction,Wind SpeedMPH,Gust SpeedMPH,PrecipitationIn,Events,Conditions,WindDirDegrees,DateUTC
12:53 AM,24.1,19.0,81,29.95,6.0,Calm,Calm,-,N/A,,Haze,0,2012-12-13 06:53:00
1:53 AM,21.9,18.0,85,29.96,6.0,NNE,3.5,-,N/A,,Mostly Cloudy,30,2012-12-13 07:53:00
2:53 AM,26.1,19.9,78,29.97,6.0,NNE,4.6,-,N/A,,Haze,30,2012-12-13 08:53:00
3:53 AM,27.0,19.0,72,29.99,5.0,NNE,8.1,-,0.00,Snow,Light Snow,20,2012-12-13 09:53:00
4:12 AM,26.6,19.4,74,29.95,1.8,NNE,5.8,-,0.00,Snow,Light Snow,20,2012-12-13 10:12:00
4:17 AM,26.6,19.4,74,29.95,0.8,NE,6.9,-,0.00,Snow,Light Snow,40,2012-12-13 10:17:00
4:29 AM,24.8,21.2,86,29.95,0.5,NE,5.8,-,0.01,Fog-Snow,Snow,40,2012-12-13 10:29:00
4:47 AM,24.8,21.2,86,29.95,1.0,North,8.1,-,0.01,Snow,Light Snow,10,2012-12-13 10:47:00
4:53 AM,25.0,21.0,85,30.00,1.0,North,9.2,-,0.01,Snow,Light Snow,10,2012-12-13 10:53:00
5:13 AM,24.8,21.2,86,29.93,1.8,NNE,12.7,-,0.00,Snow,Light Snow,20,2012-12-13 11:13:00
5:22 AM,24.8,21.2,86,29.94,2.5,NNE,10.4,-,0.00,Snow,Light Snow,20,2012-12-13 11:22:00
5:32 AM,24.8,21.2,86,29.94,3.0,North,10.4,-,0.00,Snow,Light Snow,10,2012-12-13 11:32:00
5:41 AM,24.8,21.2,86,29.95,2.5,North,10.4,-,0.00,Snow,Light Snow,360,2012-12-13 11:41:00
5:53 AM,25.0,19.9,81,30.01,3.0,North,10.4,-,0.00,Snow,Light Snow,10,2012-12-13 11:53:00
6:08 AM,24.8,19.4,80,29.96,2.5,North,8.1,-,0.00,Snow,Light Snow,10,2012-12-13 12:08:00
6:15 AM,24.8,19.4,80,29.96,1.8,NNE,9.2,-,0.00,Snow,Light Snow,20,2012-12-13 12:15:00
6:44 AM,24.8,19.4,80,29.97,2.5,NNE,8.1,-,0.00,Snow,Light Snow,30,2012-12-13 12:44:00
6:53 AM,24.1,19.9,84,30.02,2.0,NNE,8.1,-,0.00,Snow,Light Snow,30,2012-12-13 12:53:00
7:15 AM,24.8,19.4,80,29.97,3.0,NNE,6.9,-,0.00,Snow,Light Snow,30,2012-12-13 13:15:00
7:53 AM,24.1,19.0,81,30.05,5.0,North,3.5,-,0.00,,Haze,10,2012-12-13 13:53:00
8:53 AM,24.1,18.0,77,30.06,4.0,North,5.8,-,N/A,,Haze,350,2012-12-13 14:53:00
9:53 AM,25.0,18.0,75,30.07,5.0,NNE,6.9,-,N/A,,Haze,20,2012-12-13 15:53:00
10:53 AM,25.0,18.0,75,30.08,6.0,North,5.8,-,N/A,,Haze,10,2012-12-13 16:53:00
11:53 AM,25.0,17.1,72,30.11,6.0,NNW,11.5,-,N/A,,Haze,340,2012-12-13 17:53:00
12:53 PM,26.1,17.1,69,30.09,8.0,North,8.1,-,N/A,,Partly Cloudy,360,2012-12-13 18:53:00
1:53 PM,25.0,17.1,72,30.09,8.0,NNW,8.1,-,N/A,,Partly Cloudy,330,2012-12-13 19:53:00
2:53 PM,25.0,15.1,66,30.11,9.0,North,6.9,-,N/A,,Clear,350,2012-12-13 20:53:00
3:53 PM,24.1,14.0,65,30.12,10.0,North,4.6,-,N/A,,Clear,10,2012-12-13 21:53:00
6:53 PM,15.1,10.0,80,30.17,6.0,Calm,Calm,-,N/A,,Haze,0,2012-12-14 00:53:00
7:53 PM,10.0,6.1,84,30.18,4.0,Calm,Calm,-,N/A,,Clear,0,2012-12-14 01:53:00
7:59 PM,10.4,6.8,85,30.11,1.8,Calm,Calm,-,N/A,,Clear,0,2012-12-14 01:59:00
8:06 PM,8.6,5.0,85,30.11,3.0,NE,3.5,-,N/A,,Clear,40,2012-12-14 02:06:00
8:53 PM,10.0,3.9,76,30.18,7.0,Calm,Calm,-,N/A,,Clear,0,2012-12-14 02:53:00
9:53 PM,8.1,3.9,83,30.19,5.0,Calm,Calm,-,N/A,,Clear,0,2012-12-14 03:53:00
10:53 PM,3.9,-0.9,80,30.18,6.0,Calm,Calm,-,N/A,,Haze,0,2012-12-14 04:53:00
11:53 PM,3.9,-0.9,80,30.19,7.0,Calm,Calm,-,N/A,,Clear,0,2012-12-14 05:53:00